Location: Vassar Physics Lab
(41.6843°N, 73.8954°W)
Time: 18:34:19
(UTC-04:00)

CZ-4B DEB - Visible Passes

Search period start: 30 April 2016 00:00
Search period end: 10 May 2016 00:00
Orbit: 841 x 863 km, 98.9° (Epoch: 29 April)

Date Brightness Start Highest point End Pass type
(mag) Time Alt. Az. Time Alt. Az. Time Alt. Az.
30 Apr 4.7 04:24:14 10° NNE 04:29:39 59° ESE 04:35:00 10° S visible
01 May 5.1 04:12:58 10° NNE 04:18:15 47° E 04:23:27 10° S visible
02 May 5.5 04:01:46 10° NNE 04:06:49 37° E 04:11:50 10° SSE visible
03 May 5.9 03:50:39 10° NE 03:55:23 29° E 04:00:05 10° SSE visible
04 May 6.2 03:39:36 10° NE 03:43:55 23° E 03:48:13 10° SE visible
05 May 6.5 03:28:42 10° NE 03:32:27 19° E 03:36:11 10° SE visible
05 May 4.4 05:08:11 10° N 05:13:32 58° WNW 05:18:52 10° SSW visible
06 May 6.7 03:18:01 10° ENE 03:20:57 14° E 03:23:52 10° ESE visible
06 May 4.2 04:56:44 10° N 05:02:12 73° WNW 05:07:38 10° SSW visible
07 May 6.9 03:07:57 10° ENE 03:09:25 11° E 03:10:55 10° ESE visible
07 May 4.2 04:45:21 10° NNE 04:50:51 89° ESE 04:56:20 10° SSW visible
08 May 4.4 04:34:01 10° NNE 04:39:29 72° ESE 04:44:56 10° S visible
09 May 4.8 04:22:42 10° NNE 04:28:06 57° E 04:33:28 10° S visible
